Weather History for KPIR - April, 2014

Change the Weather History Date:

Saturday, April 26, 2014

  Actual Average Record
Temperature  
Mean Temperature 60 °F 51 °F  
Max Temperature 71 °F 64 °F 86 °F (1952)
Min Temperature 48 °F 38 °F 18 °F (1950)
Degree Days  
Heating Degree Days 5 14  
Month to date heating degree days 511 493  
Since 1 July heating degree days 7579 6938  
Cooling Degree Days 0 0  
Month to date cooling degree days 0 0  
Year to date cooling degree days 0 0  
Growing Degree Days 9 (Base 50)    
Moisture  
Dew Point 37 °F    
Average Humidity 51    
Maximum Humidity 71    
Minimum Humidity 30    
Precipitation  
Precipitation 0.00 in 0.07 in 2.13 in (1964)
Month to date precipitation 0.07 1.50  
Year to date precipitation 1.63 3.74  
Snow  
Snow 0.00 in 0.10 in 0.60 in (1893)
Month to date snowfall T 3.9  
Since 1 July snowfall 34.6 31.7  
Snow Depth 0.00 in    
Sea Level Pressure  
Sea Level Pressure 29.56 in    
Wind  
Wind Speed 25 mph (East)    
Max Wind Speed 40 mph    
Max Gust Speed 49 mph    
Visibility 10 miles    
Events      
T = Trace of Precipitation, MM = Missing Value Source: NWS Daily Summary

Daily Weather History Graph

Daily Weather History Graph

Search for Another Location

Airport or City:

Trip Planner

Search our weather history database for the weather conditions in past years. The results will help you decide how hot, cold, wet, or windy it might be!

Date:

Astronomy

Apr. 26, 2014 Rise Set
Actual Time 6:39 AM CDT 8:39 PM CDT
Civil Twilight 6:07 AM CDT 9:10 PM CDT
Nautical Twilight 5:29 AM CDT 9:49 PM CDT
Astronomical Twilight 4:47 AM CDT 10:31 PM CDT
Moon 5:11 AM CDT (4/26) 6:04 PM CDT (4/26)
Length of Visible Light 15h 02m
Length of Day
13h 59m
Waning Crescent, 8% of the Moon is Illuminated
Apr 26
Waning Crescent
Apr 29
New
May 6
First Quarter
May 14
Full
May 21
Last Quarter

Hourly Weather History & Observations

Time (CDT) Temp. Dew Point Humidity Pressure Visibility Wind Dir Wind Speed Gust Speed Precip Events Conditions
12:53 AM 51.1 °F 34.0 °F 52% 29.73 in 10.0 mi ENE 13.8 mph - N/A   Clear
1:53 AM 48.0 °F 39.0 °F 71% 29.75 in 10.0 mi ENE 10.4 mph - N/A   Clear
2:53 AM 48.9 °F 39.9 °F 71% 29.72 in 10.0 mi East 15.0 mph - N/A   Clear
4:53 AM 50.0 °F 37.9 °F 63% 29.69 in 10.0 mi East 13.8 mph - N/A   Partly Cloudy
6:53 AM 51.1 °F 37.0 °F 59% 29.65 in 10.0 mi East 16.1 mph - N/A   Scattered Clouds
8:53 AM 52.0 °F 37.0 °F 57% 29.64 in 10.0 mi ESE 25.3 mph 35.7 mph N/A   Clear
9:53 AM 57.0 °F 37.9 °F 49% 29.62 in 10.0 mi ESE 32.2 mph 40.3 mph N/A   Clear
10:53 AM 61.0 °F 37.9 °F 42% 29.60 in 10.0 mi ESE 27.6 mph 39.1 mph N/A   Clear
11:53 AM 64.9 °F 37.0 °F 36% 29.57 in 10.0 mi ESE 26.5 mph 39.1 mph N/A   Clear
12:53 PM 66.9 °F 37.0 °F 33% 29.57 in 10.0 mi ESE 28.8 mph 36.8 mph N/A   Clear
1:53 PM 68.0 °F 37.0 °F 32% 29.53 in 10.0 mi ESE 33.4 mph 44.9 mph N/A   Clear
2:53 PM 68.0 °F 36.0 °F 31% 29.51 in 10.0 mi ESE 31.1 mph 42.6 mph N/A   Clear
3:53 PM 70.0 °F 37.0 °F 30% 29.47 in 10.0 mi ESE 39.1 mph 48.3 mph N/A   Partly Cloudy
4:53 PM 70.0 °F 37.9 °F 31% 29.46 in 10.0 mi ESE 36.8 mph 46.0 mph N/A   Overcast
5:53 PM 69.1 °F 39.9 °F 35% 29.45 in 10.0 mi ESE 26.5 mph 41.4 mph N/A   Overcast
6:53 PM 68.0 °F 39.9 °F 36% 29.44 in 10.0 mi East 28.8 mph 38.0 mph N/A   Overcast
7:53 PM 66.0 °F 37.9 °F 36% 29.44 in 10.0 mi East 27.6 mph 39.1 mph N/A   Overcast
8:53 PM 59.0 °F 36.0 °F 42% 29.46 in 10.0 mi East 26.5 mph 36.8 mph N/A   Mostly Cloudy
9:53 PM 54.0 °F 36.0 °F 51% 29.47 in 10.0 mi ENE 25.3 mph 34.5 mph N/A   Partly Cloudy
11:53 PM 50.0 °F 35.1 °F 57% 29.44 in 10.0 mi East 25.3 mph 36.8 mph N/A   Mostly Cloudy